默认 日期 大小 文件数 浏览量 最新下载 xml
systems磁力链接相关资源由用户搜索指令自动获取,结果来源于网络,本站不存储任何资料,亦不承担任何责任,请于24小时内删除,搜索到6600个磁力,显示前4000条数据,用时6ms。
    ... , "Become a Certified Information Systems Security Professional (CISSP).torrent": 141316 ... , "become-a-certified-information-systems-security-professional-cissp_meta.sqlite": 20480 ... .mp4": 33758008, "066 - Embedded Systems.mp4": 50212442, "075 - Personnel ...
创建时间: 2024-05-03 19:45:01 大小:11.07 GB 文件数量:500 热度:6 最近下载:2025-03-10 11:58:02
    {"Wild T. Transport Category Aircraft Systems 1990.pdf": 166025477}
创建时间: 2024-05-04 08:18:48 大小:158.33 MB 文件数量:1 热度:6 最近下载:2025-02-28 06:32:01
    {"Mehta S. Radar and RF Front End System Designs for Wireless Systems 2024.pdf": 9500090}
创建时间: 2024-05-04 19:22:01 大小:9.06 MB 文件数量:1 热度:6 最近下载:2025-01-21 01:15:09
    {"Karim S. Intelligent Systems of Computing and Informatics 2024.pdf": 14988104}
创建时间: 2024-05-19 15:41:02 大小:14.29 MB 文件数量:1 热度:6 最近下载:2025-09-18 22:44:07
    {"Gros C. Complex and Adaptive Dynamical Systems. A Comprehensive Introd. 5ed 2024.pdf": 13618172}
创建时间: 2024-05-19 16:49:09 大小:12.99 MB 文件数量:1 热度:6 最近下载:2025-04-17 20:02:01
    {"patch": {"NLM": {"Cadence": {"Fidelity 2023.2-2": {"bin": {"lb.dll": 24966656, "euranus.dll": 46297600, "hexstream.dll": 135548928, "libggbase.dll": 6419456, "fidelitylib.dll": 276404736, "hexstream-sp.dll": 135454720, "hexpressx86_64.exe": 19290368, " ...
创建时间: 2024-05-22 08:36:17 大小:7.24 GB 文件数量:53 热度:6 最近下载:2025-01-27 06:25:09
    {"Chaikovskaya E. Smart Grid Technologies in Electric Systems...Energy 2023.pdf": 12125410, "Chaikovskaya E. Smart Grid Technologies in Electric Systems...Wind...Solar..2024.pdf": 20726354}
创建时间: 2024-05-22 18:09:45 大小:31.33 MB 文件数量:2 热度:6 最近下载:2025-01-13 02:49:03
    {"~Get Your Files Here !": {"Bonus Resources.txt": 386, "ChaoticDynamicsofFractionalDiscreteTimeSystems.pdf": 32321951}, "Get Bonus Downloads Here.url": 182}
创建时间: 2024-05-27 10:51:11 大小:30.83 MB 文件数量:3 热度:6 最近下载:2025-02-03 02:16:06
    ... 35506222, "An Introduction to Database Systems # 0321189566.djvu": 28140549, " ... 9780764599651.pdf": 11062283, "database-systems-the-complete-book-0131873253_meta.xml ... 9780470388372.pdf": 19393277, "database-systems-the-complete-book-0131873253_meta.sqlite ...
创建时间: 2024-06-09 08:40:42 大小:398.36 MB 文件数量:34 热度:6 最近下载:2025-03-01 02:53:02
    {"Kar P. Recommender Systems. Algorithms and their Applications 2024.pdf": 4939095}
创建时间: 2024-06-16 13:07:02 大小:4.71 MB 文件数量:1 热度:6 最近下载:2025-09-01 16:14:02
    {"~Get Your Files Here !": {"Bonus Resources.txt": 386, "PythonforArtificialIntelligenceProgramming.epub": 406913}, "Get Bonus Downloads Here.url": 182}
创建时间: 2024-06-23 16:25:04 大小:397.93 KB 文件数量:3 热度:6 最近下载:2025-07-29 01:12:04
    {"Prasad R. 6G Connectivity-Systems, Technologies, and Applications...2024.pdf": 18323259}
创建时间: 2024-06-23 19:59:33 大小:17.47 MB 文件数量:1 热度:6 最近下载:2025-09-18 22:59:08
    {"Koul S. Antenna Systems for Modern Wireless Devices 2024.pdf": 15476813}
创建时间: 2024-07-02 15:29:45 大小:14.76 MB 文件数量:1 热度:6 最近下载:2025-01-17 07:30:04
    {"_ DOWNLOAD free audiobook version.txt": 1346, "_ your support is needed, 242 members to go (06.20.2024).txt": 915, "Antenna Systems for Modern Wireless Devices by Shiban K. Koul ...pdf": 15476813}
创建时间: 2024-07-04 12:44:52 大小:14.76 MB 文件数量:3 热度:6 最近下载:2025-02-06 08:53:06
    {"Readme.txt": 957, "Vedral J. Industrial and Laboratory Measuring Systems. Sensors,...Wireless..2024.pdf": 28815674}
创建时间: 2024-07-18 08:04:53 大小:27.48 MB 文件数量:2 热度:6 最近下载:2025-02-17 06:29:03
    {"Get some real action.txt": 41, "Downloaded from demonoid.txt": 53, "Mechanical and Electrical Systems in Architecture, Engineering a.pdf.zip": 25221507}
创建时间: 2024-07-20 09:17:27 大小:24.05 MB 文件数量:3 热度:6 最近下载:2025-10-04 16:59:03
    ... Compact Disc - Recordable Compact Disc Systems - Part I CD-MO - ... Compact Disc - Recordable Compact Disc Systems - Part I CD-MO - ... Compact Disc - Recordable Compact Disc Systems - Part I CD-MO - ... Compact Disc - Recordable Compact Disc Systems - Part I CD-MO - ...
创建时间: 2024-07-25 15:12:39 大小:215.5 MB 文件数量:33 热度:6 最近下载:2025-01-23 17:19:02
    ... 10719137, "EIIIx E-mu Systems - Volume 1 - Emulator ... 13058973, "EIIIx E-mu Systems - Volume 1 - Emulator Standards_back_thumb ... 4198, "EIIIx E-mu Systems - Volume 1 - Emulator ... 3088, "EIIIx E-mu Systems - Volume 1 - Emulator Standards_artwork_thumb ...
创建时间: 2024-07-27 19:20:27 大小:325.88 MB 文件数量:11 热度:6 最近下载:2025-02-17 16:34:06
    {"~Get Your Files Here !": {"Bonus Resources.txt": 386, "978-3-031-62146-8.pdf": 6635915, "978-3-031-62146-8.epub": 11733649}, "Get Bonus Downloads Here.url": 182}
创建时间: 2024-07-29 11:29:30 大小:17.52 MB 文件数量:4 热度:6 最近下载:2025-03-20 01:56:04
    {"Readme.txt": 957, "Simoes M. Power Electronic Converters and Systems...and machine drives 2ed 2024.pdf": 87229780}
创建时间: 2024-07-29 14:40:51 大小:83.19 MB 文件数量:2 热度:6 最近下载:2025-09-19 18:10:03